YAOGAN-21
Last updated on Mon Jun 22 2026 00:02:51 GMT+0000 (Coordinated Universal Time)
1 40143U 14053A 26172.55485899 .00009004 00000+0 34775-3 0 9997
2 40143 97.1472 212.6033 0009920 81.2546 278.9817 15.26432475655622
Next 0 passes for location: London (51.5072 / 0.1276)
No passes found over London.